Location: ????????
(55.7333°N, 38.9167°E)
Time: 00:08:04
(UTC+00:00)

Daily predictions for brighter satellites

Satellite Brightness Start Highest point End
(mag) Time Altitude Azimuth Time Altitude Azimuth Time Altitude Azimuth
Cosmos 2333 Rocket 2.9 00:15:55 51° E 00:15:55 51° E 00:20:46 10° NE
Resurs 1-4 Rocket 3.7 00:10:05 10° N 00:12:39 28° N 00:12:39 28° N
Cosmos 2219 Rocket 2.7 00:24:21 56° E 00:24:21 56° E 00:29:13 10° NE
SL-16 R/B 3.4 00:26:02 34° N 00:26:02 34° N 00:30:01 10° NNE
Meteor 2-21 Rocket 4.5 00:29:39 74° N 00:29:39 74° N 00:35:14 10° NNE
USA 267 4.4 00:27:32 10° ENE 00:33:16 32° SE 00:35:00 28° SSE
Cosmos 2322 4.0 00:34:25 63° NNE 00:34:25 63° NNE 00:39:16 10° NNE
ADEOS II 2.7 00:30:18 10° NNE 00:34:11 50° N 00:34:11 50° N
Cosmos 2237 Rocket 3.4 00:38:12 31° SE 00:39:52 38° ESE 00:45:05 10° NE
Cosmos 2369 Rocket 3.6 00:42:41 13° NNW 00:47:10 34° NE 00:52:15 10° ESE
Meteor 2-16 Rocket 4.3 00:49:19 78° NW 00:49:19 78° NW 00:55:16 10° N
Lacrosse 4 Rocket 3.7 00:53:02 17° N 00:53:02 17° N 00:54:51 10° NNE
Cosmos 2322 Rocket 3.3 00:53:03 32° NNW 00:53:03 32° NNW 00:57:31 10° NNE
Cosmos 1025 Rocket 3.9 00:54:14 46° NE 00:54:14 46° NE 00:57:26 10° NNE
Cosmos 2251 Rocket 3.9 00:55:15 57° NNW 00:55:15 57° NNW 00:59:50 10° NNE
Cosmos 1709 Rocket 3.9 00:56:57 72° WSW 00:57:21 75° WNW 01:03:46 10° N
Cosmos 1980 4.3 00:56:19 39° SSE 00:57:59 51° ESE 01:03:27 10° NE
Cosmos 2360 Rocket 2.8 00:59:40 42° NNW 00:59:40 42° NNW 01:04:36 10° NNE
IDEFIX/ARIANE 42P 3.4 00:54:34 10° NNE 00:59:40 49° E 01:02:49 22° SSE
Aureole 1 Rocket 3.5 01:05:13 62° N 01:05:13 62° N 01:08:42 10° NNE
Cosmos 2098 Rocket 4.5 01:04:49 51° WNW 01:04:59 51° WNW 01:11:40 10° N
COSMOS 2428 2.5 01:05:54 76° W 01:06:11 79° NW 01:11:55 10° NNE
Cosmos 1943 Rocket 3.2 01:01:04 11° NNW 01:06:14 45° NE 01:11:40 10° ESE
Cosmos 1980 Rocket 4.0 01:05:28 18° NNW 01:06:33 19° NNW 01:10:37 10° NNE
CZ-2D R/B 3.7 01:02:25 10° N 01:05:02 22° NNW 01:05:02 22° NNW
USA 229 DEB 4.5 01:05:07 31° NW 01:07:58 46° N 01:14:59 10° ENE
USA 229 4.5 01:05:13 31° NW 01:08:04 46° N 01:15:02 10° ENE
Cosmos 407 Rocket 4.0 01:06:45 40° SSE 01:08:17 55° ESE 01:13:19 10° NE
Cosmos 2184 Rocket 4.4 01:03:08 11° S 01:09:01 64° E 01:15:17 10° NNE
Nadezhda 3 Rocket 4.4 01:03:31 10° N 01:09:54 66° ENE 01:16:12 10° SSE
USA 234 3.2 01:04:40 10° SE 01:11:07 58° SSW 01:12:00 54° WSW
NOSS 3-1 (A) 4.4 01:09:47 34° NW 01:12:07 45° N 01:19:21 10° ENE
NOSS 2-2 (D) 3.6 01:15:07 69° NE 01:15:07 69° NE 01:19:19 10° NE
COSMOS 2455 3.0 01:14:16 54° WNW 01:14:56 57° NW 01:20:54 10° NE
NOSS 3-4 (A) 4.0 01:12:32 34° S 01:14:59 54° SE 01:21:19 10° NE
NOSS 3-4 (C) 4.0 01:12:35 33° S 01:15:05 54° SE 01:21:26 10° NE
ATLAS 3B R/B 3.4 01:18:52 34° SSW 01:18:52 34° SSW 01:23:14 10° S
Cosmos 44 Rocket 3.7 01:24:35 44° S 01:24:35 44° S 01:27:59 10° SSE
CENTAUR R/B 3.4 01:23:56 41° WSW 01:24:03 41° WSW 01:31:53 10° S
Cosmos 1707 3.3 01:23:30 48° SE 01:24:14 58° E 01:28:06 10° NNE
CBERS 1 LM4 rocket 4.3 01:21:38 10° NNE 01:26:46 87° WNW 01:28:08 49° SSW
NOSS 3-1 (C) 4.5 01:23:23 27° NW 01:26:46 47° N 01:34:11 10° E
Cosmos 2058 Rocket 3.8 01:23:21 10° N 01:27:43 54° ENE 01:32:04 10° SSE
Cosmos 1536 Rocket 4.1 01:33:18 44° NNW 01:33:18 44° NNW 01:36:39 10° N
ARIANE 5 R/B 3.3 01:28:57 10° N 01:32:43 33° NW 01:32:43 33° NW
Cosmos 614 Rocket 4.0 01:32:16 38° SSW 01:34:20 83° ESE 01:39:33 10° NNE
SL-16 R/B 3.4 01:30:45 10° S 01:35:59 40° ESE 01:41:14 10° NE
Cosmos 2074 Rocket 3.9 01:31:05 14° S 01:36:36 87° WNW 01:42:52 10° N
Meteor 1-16 Rocket 4.0 01:32:08 10° NNW 01:37:29 90° E 01:42:52 10° SSE
H-2A R/B 3.1 01:34:25 10° NNE 01:38:33 58° ESE 01:42:42 11° S
SL-24 R/B 4.4 01:35:23 10° NNE 01:39:38 84° ESE 01:41:09 38° S
Meteor 2-10 4.1 01:35:16 10° NNW 01:40:29 80° ENE 01:45:52 10° SSE
Cosmos 1140 Rocket 3.7 01:37:21 22° S 01:40:42 68° ESE 01:45:51 10° NNE
CZ-4B R/B 4.4 01:40:33 10° NNE 01:44:16 35° E 01:47:47 10° SSE
Cosmos 2297 3.7 01:41:18 27° NW 01:44:20 56° WSW 01:49:55 10° SSE
Cosmos 1954 Rocket 4.5 01:42:21 11° S 01:47:17 60° ESE 01:52:25 10° NNE
USA 32 4.0 01:45:31 32° SSW 01:47:56 63° WNW 01:53:10 10° N
PAYLOAD A 4.3 01:43:17 10° NNE 01:48:07 63° ESE 01:53:07 10° S
Cosmos 468 Rocket 3.9 01:44:38 10° NNW 01:49:51 85° ENE 01:55:00 10° SSE
NOSS 2-2 (C) 3.6 01:50:39 51° WNW 01:51:17 58° NNW 01:56:06 10° NE
MSX 3.9 01:46:13 10° NNE 01:51:59 81° ESE 01:57:44 10° SSW
ADEOS 3.5 01:46:56 10° NNE 01:52:11 78° WNW 01:56:08 18° SSW
Cosmos 1892 Rocket 4.2 01:48:17 10° S 01:52:36 58° E 01:56:55 10° NNE
CZ-2C R/B 4.4 01:50:07 10° N 01:51:41 20° NNW 01:51:41 20° NNW
CZ-2C R/B 3.0 01:48:32 10° NNE 01:53:43 61° ESE 01:58:48 10° S
Resurs 1-4 Rocket 4.0 01:51:15 10° NNW 01:53:43 14° NW 01:53:43 14° NW
Cosmos 2344 4.3 01:45:56 12° NW 01:54:36 71° SW 02:07:18 10° SSE
ATLAS 2AS CENTAUR R/B 3.0 01:50:45 28° SW 01:55:35 84° NW 02:03:34 10° NE
Cosmos 1606 Rocket 3.6 01:52:28 10° NNW 01:56:40 51° W 02:00:52 10° S
Cosmos 2333 Rocket 2.7 01:57:56 34° W 01:59:41 43° NW 02:05:09 10° NNE
ERBS 2.1 02:01:53 67° WSW 02:02:18 87° SSE 02:05:42 10° ENE
Cosmos 841 Rocket 4.0 02:01:26 10° NNW 02:06:42 62° ENE 02:11:55 10° SE
Cosmos 2219 Rocket 2.8 02:06:06 30° W 02:07:58 39° NW 02:13:14 10° NNE
COBE Rocket 4.2 02:03:24 10° SSE 02:08:30 76° ENE 02:13:43 10° NNW
Spot 2 4.1 02:05:20 10° N 02:09:14 48° WNW 02:10:24 36° WSW
Cosmos 1570 Rocket 4.0 02:04:21 10° NNW 02:09:46 87° ENE 02:15:06 10° SSE
SL-16 R/B 3.9 02:07:54 15° NW 02:10:23 19° NNW 02:14:26 10° NNE
RESURS DK-1 2.6 02:07:38 17° SSW 02:10:45 68° ESE 02:14:53 10° NE
Cosmos 1023 Rocket 4.4 02:09:28 19° SW 02:13:13 73° WNW 02:18:22 10° NNE
ADEOS II 3.4 02:10:49 10° N 02:14:39 21° NW 02:15:07 21° WNW
Cosmos 389 Rocket 2.8 02:14:58 41° WNW 02:14:59 41° WNW 02:18:19 10° N
In-Cosmos 22 4.2 02:10:45 10° S 02:16:10 84° ESE 02:21:47 10° NNE
USA 267 3.4 02:10:30 10° ENE 02:17:03 70° SSE 02:22:21 17° SW
Meteor 1-4 Rocket 2.5 02:16:15 36° SW 02:17:21 53° WNW 02:20:46 10° N
Cosmos 1812 Rocket 4.4 02:13:28 10° N 02:17:54 54° ENE 02:22:17 10° SSE
GP-B 3.0 02:13:41 10° S 02:18:08 88° W 02:22:36 10° N
Cosmos 2228 3.5 02:16:57 10° NNW 02:20:51 35° W 02:24:43 10° SSW
Cosmos 540 Rocket 3.9 02:16:51 10° NNW 02:22:01 66° ENE 02:27:09 10° SE
KORONAS-FOTON 4.5 02:20:04 10° S 02:23:46 57° E 02:27:31 10° NNE
Cosmos 2237 Rocket 2.3 02:20:04 21° WSW 02:23:47 57° NW 02:29:26 10° NNE
Cosmos 1763 Rocket 3.4 02:20:33 10° NNW 02:25:44 69° WSW 02:30:49 10° SSE
Cosmos 1726 2.4 02:22:34 10° NNW 02:26:04 42° W 02:29:33 10° SSW
Cosmos 2208 Rocket 3.9 02:20:51 10° NNW 02:26:05 83° WSW 02:31:22 10° SSE
NOSS 2-2 (E) 4.3 02:24:10 26° WNW 02:26:06 42° NNW 02:31:06 10° NE
NOSS 0 Rocket 4.1 02:22:30 21° WSW 02:26:32 54° NW 02:32:39 10° NE
ALOS 4.0 02:25:17 10° NNE 02:29:37 36° E 02:33:56 10° SSE
Cosmos 192 4.3 02:25:29 10° NNW 02:30:28 77° WSW 02:35:25 10° SSE
Cosmos 1025 Rocket 4.3 02:31:09 21° WNW 02:31:13 21° WNW 02:34:31 10° N
Cosmos 2369 Rocket 2.1 02:26:06 10° NW 02:31:42 74° WSW 02:37:16 10° SSE
Lacrosse 4 Rocket 3.6 02:29:38 10° NNW 02:32:05 15° N 02:34:32 10° NE
PSLV R/B 4.2 02:28:27 10° N 02:32:17 33° WNW 02:34:15 22° WSW
CZ-4B R/B 3.8 02:30:28 10° NNE 02:34:27 77° WNW 02:38:37 10° SSW
Cosmos 1656 Rocket 4.0 02:29:57 10° NNW 02:35:26 66° NE 02:40:50 10° SE
Cosmos 1726 Rocket 4.3 02:32:05 10° NNW 02:35:48 28° W 02:39:30 10° SSW
COSMO-SKYMED 1 2.5 02:32:08 10° S 02:36:27 71° WSW 02:40:50 10° NNW
Cosmos 1437 Rocket 2.5 02:32:57 10° SSW 02:36:43 76° WNW 02:40:34 10° NNE
Cosmos 2322 Rocket 4.0 02:34:52 11° NW 02:38:18 18° N 02:42:04 10° NNE
IDEFIX/ARIANE 42P 3.1 02:34:24 10° N 02:39:12 37° WNW 02:43:37 12° SW
Cosmos 1908 3.4 02:36:09 10° NNW 02:39:50 46° W 02:43:30 10° SSW
Okean 1-7 Rocket 3.7 02:35:40 10° SSW 02:40:05 57° WNW 02:44:35 10° N
Meteor 2-5 Rocket 3.9 02:36:09 10° S 02:42:01 86° ESE 02:48:01 10° NNE
Cosmos 1900 4.3 02:37:30 12° NW 02:42:05 68° SW 02:46:55 10° SSE
Cosmos 2218 Rocket 4.4 02:35:53 10° S 02:42:12 71° E 02:48:28 10° NNE
Cosmos 1980 4.1 02:38:12 17° WSW 02:42:13 45° NW 02:47:39 10° NNE
Cosmos 676 Rocket 4.1 02:39:18 10° SW 02:44:28 57° NW 02:49:39 10° NNE
Cosmos 2360 Rocket 3.8 02:41:27 13° WNW 02:44:40 20° NNW 02:48:49 10° NNE
CZ-4B R/B 4.4 02:40:35 10° NNE 02:45:41 45° E 02:50:45 10° S
Cosmos 2154 Rocket 4.1 02:39:44 10° SSW 02:45:46 51° WNW 02:51:52 10° N
PSLV R/B 3.7 02:42:23 10° NNE 02:46:07 86° ESE 02:49:49 10° SSW
Cosmos 1867 4.2 02:42:24 10° NW 02:47:50 56° NNE 02:53:12 10° ESE
Cosmos 1943 Rocket 2.4 02:44:39 10° NW 02:50:09 52° WSW 02:55:37 10° S
Cosmos 407 Rocket 4.1 02:47:01 16° WSW 02:50:34 35° NW 02:55:17 10° NNE
COSMOS 2428 3.8 02:47:56 16° WNW 02:51:19 28° NNW 02:56:10 10° NNE
Cosmos 1814 Rocket 4.0 02:46:12 10° NNW 02:51:34 72° WSW 02:56:54 10° SSE
Cosmos-2242 4.2 02:47:48 10° N 02:51:57 46° ENE 02:56:03 10° SE
Cosmos 1980 Rocket 4.2 02:48:47 10° NNW 02:52:46 19° NNE 02:56:45 10° ENE
Iridium 51 4.1 02:49:20 10° NNW 02:53:04 56° W 02:56:33 10° SSW
Cosmos 1455 4.5 02:51:15 10° N 02:54:30 26° ENE 02:57:43 10° SE
Cosmos 1727 Rocket 4.0 02:48:49 10° NNW 02:55:06 87° WSW 03:01:23 10° S
USA 234 4.4 02:50:01 10° S 02:55:07 24° SW 02:59:21 13° W
FENGYUN 3A 4.5 02:51:11 10° NNE 02:56:35 57° E 03:01:56 10° S
ASTEX 1 3.5 02:54:08 10° SSE 02:59:01 83° E 03:03:58 10° N
USA 229 DEB 4.1 02:52:53 10° NW 02:59:57 69° NNE 03:07:23 10° ESE
USA 229 4.1 02:53:00 10° NW 03:00:03 68° NNE 03:07:26 10° ESE
Cosmos 1707 4.2 02:58:44 15° W 03:00:29 20° WNW 03:03:25 10° NNW
Cosmos 1602 Rocket 3.7 02:56:59 10° S 03:01:18 80° E 03:05:39 10° NNE
Meteor 1-31 Rocket 3.1 02:58:04 10° N 03:01:41 40° WNW 03:05:15 10° SW
COSMOS 2455 4.0 02:57:25 13° WNW 03:02:03 30° NNW 03:07:20 10° NE
Cosmos 1674 2.8 03:00:02 10° SSW 03:03:40 50° WNW 03:07:20 10° N
NOSS 3-1 (A) 4.3 02:57:27 10° NW 03:04:14 60° NNE 03:12:12 10° ESE
Cosmos 2058 Rocket 4.1 03:01:54 10° NW 03:05:24 23° W 03:08:56 10° SW
NOSS 3-4 (A) 3.7 03:00:00 11° WSW 03:05:54 61° NNW 03:12:37 10° NE
NOSS 3-4 (C) 3.7 03:00:03 11° WSW 03:06:01 61° NNW 03:12:43 10° NE
Cosmos 220 Rocket 4.3 03:05:08 10° NNW 03:09:25 71° ENE 03:13:44 10° SE
Okean O Rocket 2.0 03:05:07 10° NNE 03:09:32 71° ESE 03:13:55 10° S
Meteor 2-1 Rocket 4.3 03:05:08 10° NNW 03:10:56 83° WSW 03:16:48 10° S
H-2A R/B 3.6 03:10:25 10° N 03:13:47 24° WNW 03:17:15 10° WSW
Cosmos 1484 Rocket 2.8 03:13:08 10° N 03:16:52 55° WNW 03:20:38 10° SSW
Cosmos 2341 Rocket 4.2 03:11:14 10° SW 03:17:15 50° WNW 03:23:18 10° N
ATLAS 5 CENTAUR R/B 4.5 03:11:31 10° WNW 03:17:28 70° SW 03:44:24 10° SE
Cosmos 2263 4.5 03:12:16 10° NW 03:17:44 50° WSW 03:23:14 10° S
Cosmos 1626 2.3 03:14:16 10° S 03:17:59 77° E 03:21:44 10° NNE
NOSS 3-1 (C) 4.1 03:11:37 10° NW 03:18:36 75° NNE 03:26:49 10° ESE
CZ-4B R/B 3.6 03:15:45 10° N 03:19:21 32° WNW 03:22:47 10° SW
Cosmos 1603 4.2 03:14:19 10° SSW 03:19:54 68° ESE 03:25:34 10° NE
SL-16 R/B 2.4 03:14:26 10° SW 03:20:00 54° NW 03:25:37 10° NNE
Cosmos 1140 Rocket 4.4 03:18:25 10° WSW 03:22:57 30° NW 03:27:30 10° NNE
Cosmos 1850 Rocket 4.0 03:18:13 10° SW 03:23:22 64° WNW 03:28:34 10° NNE
SKYMED 2 4.5 03:21:02 10° SSW 03:24:47 28° W 03:28:34 10° NNW
Cosmos 1340 Rocket 4.0 03:23:18 10° N 03:27:14 48° ENE 03:31:10 10° SE
Cosmos 1300 3.1 03:23:53 10° NNW 03:27:30 41° W 03:31:06 10° SSW
CZ-2C R/B 4.1 03:24:48 10° SSE 03:29:11 68° ENE 03:33:37 10° NNW
Meteor 1-24 Rocket 3.9 03:23:49 10° SSW 03:29:38 62° WNW 03:35:39 10° N
Genesis I 4.1 03:27:28 10° NW 03:31:19 44° NNE 03:35:04 10° ESE
CZ-2C R/B 3.3 03:27:09 10° N 03:31:40 30° WNW 03:36:07 10° WSW
SL-8 Rocket 4.1 03:26:15 10° SSW 03:32:15 52° WNW 03:38:18 10° N
ADEOS Rocket 4.1 03:25:43 10° SE 03:33:06 68° ENE 03:40:52 10° NNW
